This is the latest recevied weather packets stored in our database for station/object SALT. If no packets are shown the sender has not sent any weather packets the latest 1 day(s).
| Time | Temp. | Humidity | Pressure | Rain* | Wind** | Luminosity | Snow |
|---|---|---|---|---|---|---|---|
| 1778055440 | 8.33° C | 44% | 1020 hPa | 0 mm | - | - | - |
| 1778054235 | 8.33° C | 43% | 1019.9 hPa | 0 mm | - | - | - |
| 1778052425 | 8.89° C | 42% | 1019.8 hPa | 0 mm | - | - | - |
| 1778051822 | 8.33° C | 43% | 1019.6 hPa | 0 mm | - | - | - |
| 1778050617 | 8.33° C | 46% | 1019.4 hPa | 0 mm | - | - | - |
| 1778049410 | 8.33° C | 52% | 1019.1 hPa | 0 mm | - | - | - |
| 1778048205 | 8.89° C | 52% | 1018.8 hPa | 0 mm | - | - | - |
| 1778047602 | 8.33° C | 57% | 1018.7 hPa | 0 mm | - | - | - |
| 1778046999 | 7.78° C | 59% | 1018.5 hPa | 0 mm | - | - | - |
| 1778045189 | 8.33° C | 58% | 1018.1 hPa | 0 mm | - | - | - |
| 1778044586 | 8.89° C | 59% | 1017.9 hPa | 0 mm | - | - | - |
| 1778043381 | 8.33° C | 63% | 1017.9 hPa | 0 mm | - | - | - |
| 1778042778 | 8.33° C | 64% | 1017.9 hPa | 0 mm | - | - | - |
| 1778040365 | 8.89° C | 63% | 1017.4 hPa | 0 mm | - | - | - |
| 1778039762 | 8.89° C | 63% | 1017.1 hPa | 0 mm | - | - | - |
| 1778039160 | 9.44° C | 62% | 1017 hPa | 0 mm | - | - | - |
| 1778038555 | 9.44° C | 62% | 1017.1 hPa | 0 mm | - | - | - |
| 1778037952 | 9.44° C | 62% | 1017 hPa | 0 mm | - | - | - |
| 1778037349 | 10° C | 61% | 1016.9 hPa | 0 mm | - | - | - |
| 1778036747 | 10° C | 62% | 1016.7 hPa | 0 mm | - | - | - |
| 1778036144 | 10.56° C | 60% | 1016.7 hPa | 0 mm | - | - | - |
| 1778035542 | 10.56° C | 57% | 1016.6 hPa | 0 mm | - | - | - |
| 1778034937 | 11.11° C | 58% | 1016.3 hPa | 0 mm | - | - | - |
| 1778034334 | 11.11° C | 57% | 1016.3 hPa | 0 mm | - | - | - |
| 1778033130 | 11.67° C | 57% | 1016.1 hPa | 0 mm | - | - | - |
* Rain latest 24 hours (hover to see other rain measurements)
** Current wind speed in m/s (hover to see current wind gust speed)